Tehachapi, CA

2:53 PM PST on December 13, 2017 (GMT -0800)
Tehachapi Municipal

Weather History for KTSP - January, 2013

Change the Weather History Date:

Monday, January 28, 2013

  Actual Average Record
Temperature  
Mean Temperature 30 °F -  
Max Temperature 33 °F 52 °F 62 °F (2016)
Min Temperature 28 °F 30 °F 28 °F (2013)
Degree Days  
Heating Degree Days 34    
Moisture  
Dew Point 26 °F    
Average Humidity 81    
Maximum Humidity 93    
Minimum Humidity 69    
Precipitation  
Precipitation 0.00 in - - ()
Sea Level Pressure  
Sea Level Pressure 30.09 in    
Wind  
Wind Speed 13 mph (WNW)    
Max Wind Speed 20 mph    
Max Gust Speed 28 mph    
Visibility 10 miles    
Events Rain    
Averages and records for this station are not official NWS values.
T = Trace of Precipitation, MM = Missing Value Source: NWS Daily Summary

Daily Weather History Graph

Daily Weather History Graph

Search for Another Location

Airport or City:

Trip Planner

Search our weather history database for the weather conditions in past years. The results will help you decide how hot, cold, wet, or windy it might be!

Date:

Astronomy

Jan. 28, 2013 Rise Set
Actual Time 6:55 AM PST 5:18 PM PST
Civil Twilight 6:28 AM PST 5:45 PM PST
Nautical Twilight 5:58 AM PST 6:15 PM PST
Astronomical Twilight 5:28 AM PST 6:45 PM PST
Moon 7:11 PM PST (1/28) 7:29 AM PST (1/28)
Length of Visible Light 11h 16m
Length of Day
10h 23m
Full, 97% of the Moon is Illuminated
Jan 28
Full
Feb 3
Last Quarter
Feb 9
New
Feb 17
First Quarter
Feb 25
Full

Hourly Weather History & Observations

Time (PST) Temp. Windchill Dew Point Humidity Pressure Visibility Wind Dir Wind Speed Gust Speed Precip Events Conditions
12:15 AM 32.0 °F 22.1 °F 24.8 °F 75% 30.03 in 10.0 mi WNW 13.8 mph - N/A   Overcast
12:35 AM 32.0 °F 21.2 °F 28.4 °F 87% 30.03 in 10.0 mi WNW 16.1 mph 23.0 mph N/A   Overcast
12:55 AM 32.0 °F 20.8 °F 28.4 °F 87% 30.03 in 10.0 mi WNW 17.3 mph 24.2 mph N/A   Overcast
1:15 AM 32.0 °F 22.1 °F 24.8 °F 75% 30.03 in 10.0 mi WNW 13.8 mph - N/A   Mostly Cloudy
1:35 AM 32.0 °F 23.0 °F 23.0 °F 69% 30.03 in 10.0 mi WNW 11.5 mph - N/A   Mostly Cloudy
1:55 AM 32.0 °F 24.2 °F 24.8 °F 75% 30.03 in 10.0 mi WNW 9.2 mph - N/A   Overcast
2:15 AM 32.0 °F 24.8 °F 26.6 °F 80% 30.03 in 10.0 mi WNW 8.1 mph - N/A   Overcast
2:35 AM 32.0 °F 22.1 °F 24.8 °F 75% 30.03 in 10.0 mi WNW 13.8 mph - N/A   Overcast
2:55 AM 32.0 °F 22.1 °F 24.8 °F 75% 30.04 in 10.0 mi WNW 13.8 mph - N/A   Mostly Cloudy
3:15 AM 32.0 °F 22.5 °F 24.8 °F 75% 30.03 in 10.0 mi WNW 12.7 mph - N/A   Overcast
3:35 AM 32.0 °F 23.6 °F 26.6 °F 80% 30.02 in 10.0 mi NW 10.4 mph - N/A   Overcast
3:55 AM 32.0 °F 24.8 °F 26.6 °F 80% 30.02 in 10.0 mi WNW 8.1 mph - N/A   Overcast
4:15 AM 32.0 °F 24.2 °F 28.4 °F 87% 30.02 in 10.0 mi WNW 9.2 mph 17.3 mph N/A   Overcast
4:35 AM 32.0 °F 22.5 °F 28.4 °F 87% 30.01 in 10.0 mi WNW 12.7 mph 16.1 mph N/A   Overcast
4:55 AM 30.2 °F 21.3 °F 28.4 °F 93% 30.01 in 10.0 mi WNW 10.4 mph - N/A   Overcast
5:35 AM 32.0 °F 23.0 °F 26.6 °F 80% 30.01 in 10.0 mi WNW 11.5 mph 18.4 mph N/A   Overcast
5:55 AM 32.0 °F 23.6 °F 26.6 °F 80% 30.02 in 10.0 mi NW 10.4 mph - N/A   Overcast
6:15 AM 30.2 °F 18.9 °F 28.4 °F 93% 30.03 in 10.0 mi WNW 16.1 mph - N/A   Overcast
6:35 AM 30.2 °F 17.8 °F 28.4 °F 93% 30.03 in 7.0 mi WNW 19.6 mph 27.6 mph N/A   Overcast
6:55 AM 30.2 °F 19.8 °F 28.4 °F 93% 30.03 in 10.0 mi NW 13.8 mph 24.2 mph N/A   Overcast
7:35 AM 30.2 °F 18.5 °F 28.4 °F 93% 30.04 in 10.0 mi NW 17.3 mph 25.3 mph N/A   Overcast
7:55 AM 30.2 °F 20.2 °F 28.4 °F 93% 30.05 in 10.0 mi NW 12.7 mph - N/A   Overcast
8:15 AM 30.2 °F 18.9 °F 28.4 °F 93% 30.05 in 10.0 mi NW 16.1 mph 20.7 mph N/A   Overcast
8:35 AM 30.2 °F 18.5 °F 26.6 °F 86% 30.06 in 10.0 mi NW 17.3 mph 25.3 mph N/A Rain Light Freezing Rain
8:55 AM 30.2 °F 19.3 °F 26.6 °F 86% 30.07 in 10.0 mi NW 15.0 mph 20.7 mph N/A   Overcast
9:15 AM 30.2 °F 18.1 °F 26.6 °F 86% 30.07 in 10.0 mi WNW 18.4 mph - N/A   Overcast
9:35 AM 30.2 °F 18.5 °F 26.6 °F 86% 30.08 in 10.0 mi NW 17.3 mph 25.3 mph N/A   Overcast
9:55 AM 30.2 °F 18.9 °F 26.6 °F 86% 30.09 in 10.0 mi NW 16.1 mph 20.7 mph N/A   Overcast
10:15 AM 32.0 °F 23.0 °F 28.4 °F 87% 30.09 in 10.0 mi NW 11.5 mph 17.3 mph N/A   Overcast
10:35 AM 30.2 °F 18.9 °F 28.4 °F 93% 30.10 in 10.0 mi WNW 16.1 mph - N/A   Overcast
10:55 AM 32.0 °F 21.6 °F 28.4 °F 87% 30.10 in 10.0 mi WNW 15.0 mph 21.9 mph N/A   Overcast
11:15 AM 32.0 °F 22.1 °F 28.4 °F 87% 30.11 in 10.0 mi WNW 13.8 mph 19.6 mph N/A   Overcast
11:35 AM 32.0 °F 22.1 °F 26.6 °F 80% 30.11 in 10.0 mi WNW 13.8 mph 18.4 mph N/A   Mostly Cloudy
11:55 AM 32.0 °F 20.5 °F 26.6 °F 80% 30.11 in 10.0 mi NW 18.4 mph 21.9 mph N/A   Overcast
12:15 PM 32.0 °F 21.6 °F 26.6 °F 80% 30.11 in 10.0 mi NW 15.0 mph - N/A   Overcast
12:35 PM 32.0 °F 22.1 °F 26.6 °F 80% 30.11 in 10.0 mi NW 13.8 mph - N/A   Overcast
12:55 PM 32.0 °F 21.2 °F 26.6 °F 80% 30.10 in 10.0 mi WNW 16.1 mph 21.9 mph N/A   Overcast
1:15 PM 32.0 °F 21.2 °F 26.6 °F 80% 30.10 in 10.0 mi NW 16.1 mph 21.9 mph N/A   Overcast
1:35 PM 32.0 °F 22.5 °F 26.6 °F 80% 30.10 in 10.0 mi WNW 12.7 mph 18.4 mph N/A   Overcast
1:55 PM 32.0 °F 23.0 °F 26.6 °F 80% 30.10 in 10.0 mi NW 11.5 mph - N/A   Overcast
2:15 PM 32.0 °F 23.6 °F 26.6 °F 80% 30.10 in 10.0 mi NW 10.4 mph 17.3 mph N/A   Overcast
2:35 PM 32.0 °F 22.1 °F 26.6 °F 80% 30.10 in 10.0 mi NW 13.8 mph - N/A   Overcast
2:55 PM 32.0 °F 22.1 °F 26.6 °F 80% 30.11 in 10.0 mi NW 13.8 mph 18.4 mph N/A   Overcast
3:15 PM 33.8 °F 23.9 °F 24.8 °F 70% 30.11 in 10.0 mi WNW 15.0 mph - N/A   Overcast
3:35 PM 33.8 °F 24.8 °F 24.8 °F 70% 30.11 in 10.0 mi NW 12.7 mph 18.4 mph N/A   Overcast
3:55 PM 32.0 °F 23.0 °F 24.8 °F 75% 30.11 in 10.0 mi NW 11.5 mph 18.4 mph N/A   Overcast
4:15 PM 32.0 °F 23.0 °F 26.6 °F 80% 30.11 in 10.0 mi WNW 11.5 mph - N/A   Overcast
4:35 PM 33.8 °F 24.3 °F 24.8 °F 70% 30.12 in 10.0 mi WNW 13.8 mph - N/A   Overcast
4:55 PM 32.0 °F 22.5 °F 24.8 °F 75% 30.13 in 10.0 mi WNW 12.7 mph - N/A   Overcast
5:15 PM 32.0 °F 24.2 °F 24.8 °F 75% 30.13 in 10.0 mi WNW 9.2 mph - N/A   Overcast
5:35 PM 32.0 °F 24.2 °F 24.8 °F 75% 30.13 in 10.0 mi WNW 9.2 mph - N/A   Overcast
5:55 PM 32.0 °F 23.0 °F 24.8 °F 75% 30.14 in 10.0 mi WNW 11.5 mph - N/A   Overcast
6:15 PM 32.0 °F 25.6 °F 24.8 °F 75% 30.15 in 10.0 mi West 6.9 mph - N/A   Overcast
6:35 PM 32.0 °F 25.6 °F 24.8 °F 75% 30.15 in 10.0 mi WNW 6.9 mph - N/A   Overcast
6:55 PM 32.0 °F 24.8 °F 26.6 °F 80% 30.15 in 10.0 mi West 8.1 mph - N/A   Overcast
7:15 PM 32.0 °F 24.2 °F 26.6 °F 80% 30.16 in 10.0 mi WNW 9.2 mph - N/A   Mostly Cloudy
7:35 PM 32.0 °F 25.6 °F 26.6 °F 80% 30.16 in 10.0 mi WNW 6.9 mph - N/A   Mostly Cloudy
7:55 PM 32.0 °F 24.2 °F 26.6 °F 80% 30.16 in 10.0 mi WNW 9.2 mph - N/A   Mostly Cloudy
8:15 PM 30.2 °F 19.8 °F 26.6 °F 86% 30.15 in 10.0 mi WNW 13.8 mph - N/A   Mostly Cloudy
8:35 PM 30.2 °F 21.3 °F 24.8 °F 80% 30.16 in 10.0 mi WNW 10.4 mph - N/A   Scattered Clouds
8:55 PM 32.0 °F 22.1 °F 24.8 °F 75% 30.16 in 10.0 mi WNW 13.8 mph 17.3 mph N/A   Scattered Clouds
9:15 PM 30.2 °F 21.3 °F 24.8 °F 80% 30.16 in 10.0 mi WNW 10.4 mph - N/A   Partly Cloudy
9:35 PM 30.2 °F 20.2 °F 24.8 °F 80% 30.16 in 10.0 mi West 12.7 mph - N/A   Clear
9:55 PM 28.4 °F 18.0 °F 24.8 °F 86% 30.16 in 10.0 mi West 12.7 mph - N/A   Clear
10:15 PM 28.4 °F 19.1 °F 24.8 °F 86% 30.15 in 10.0 mi WNW 10.4 mph - N/A   Clear
10:35 PM 30.2 °F 21.3 °F 24.8 °F 80% 30.16 in 10.0 mi WNW 10.4 mph 17.3 mph N/A   Clear
10:55 PM 30.2 °F 20.2 °F 24.8 °F 80% 30.16 in 10.0 mi WNW 12.7 mph - N/A   Partly Cloudy
11:15 PM 32.0 °F 20.8 °F 24.8 °F 75% 30.16 in 10.0 mi WNW 17.3 mph 23.0 mph N/A   Clear
11:35 PM 32.0 °F 22.1 °F 24.8 °F 75% 30.16 in 10.0 mi NW 13.8 mph 21.9 mph N/A   Clear
11:55 PM 32.0 °F 20.1 °F 24.8 °F 75% 30.17 in 10.0 mi WNW 19.6 mph 26.5 mph N/A   Clear